Wind_Speed
39 39 39 37 37 37 37 37 38 39 42 43 43 44 45 46 45 44 44 44 46 47 45 43 43 43 43 43 43 44 43 42 40 39 38 39 38 38 38 39 38 39 39
38 38 39 38 38 36 36 36 37 38 38 38 40 41 42 44 45 44 45 45 45 45 45 44 42 42 42 42 42 43 42 41 40 39 38 38 37 38 38 38 38 38 38
38 38 37 37 36 36 35 36 36 36 37 37 38 39 41 42 43 44 44 43 43 43 43 44 44 42 40 41 42 42 42 42 42 41 40 38 37 38 37 38 38 38 38
36 37 37 37 37 36 34 34 34 35 35 36 37 37 39 40 42 42 42 41 41 41 42 43 44 43 41 41 41 42 42 41 41 41 40 39 37 37 38 38 38 38 38
33 35 36 35 35 35 35 34 33 33 34 35 35 36 37 38 39 39 40 40 40 41 41 42 43 43 42 41 41 40 40 40 39 40 40 39 38 37 37 38 39 38 36
29 30 32 32 33 33 34 34 34 34 34 34 34 34 33 34 35 35 37 38 39 39 40 40 40 40 41 40 40 39 39 38 39 41 40 39 38 38 38 38 37 35 35
27 28 29 29 29 31 32 31 31 32 33 32 32 32 32 32 33 34 34 36 37 38 39 38 38 38 39 39 38 38 38 38 39 40 40 38 38 38 37 37 36 35 34
25 26 27 27 27 28 28 29 29 29 29 30 30 31 32 31 32 33 33 34 34 35 35 35 35 35 35 35 35 35 35 35 37 38 38 38 38 38 37 36 34 34 34
22 23 24 25 26 27 27 27 28 28 29 29 29 30 30 32 32 33 33 32 32 32 32 33 33 32 33 33 34 34 34 34 35 35 35 36 36 35 35 34 33 32 32
20 21 22 23 25 26 27 26 27 27 27 28 28 29 30 31 32 32 33 32 31 31 31 31 31 32 33 33 34 34 34 34 34 34 34 35 35 34 34 34 34 32 31
19 19 20 22 23 24 24 25 25 25 26 26 27 28 29 29 29 29 30 30 30 30 30 31 30 31 31 31 32 33 32 32 32 32 33 33 33 33 33 33 32 31 31
18 19 20 21 22 22 23 23 24 24 25 25 25 26 26 27 27 29 29 29 28 29 29 30 30 30 30 30 31 31 31 31 30 30 30 31 31 31 31 31 30 29 28
19 19 20 20 21 22 23 23 24 24 24 24 24 25 24 24 26 27 28 28 27 28 28 28 29 29 29 29 30 30 30 30 28 28 27 28 28 28 28 29 29 28 27
19 19 20 20 21 22 22 22 22 23 23 23 23 23 23 24 24 25 26 26 26 27 27 28 29 29 28 28 28 28 28 27 25 24 24 24 25 26 26 26 25 25 25
19 19 19 19 19 20 21 21 20 21 21 21 21 21 22 23 23 23 24 26 26 26 27 27 27 28 28 27 27 27 26 26 25 24 23 23 23 24 24 24 24 23 23
17 17 17 18 19 19 19 20 20 20 21 20 20 21 22 22 22 23 24 25 25 25 25 25 25 25 26 26 26 26 25 24 23 22 21 21 22 22 22 22 22 21 21
17 17 16 17 17 18 18 19 19 19 19 20 20 21 21 22 22 22 22 23 23 23 23 23 23 23 24 24 25 25 24 23 22 22 21 21 21 21 20 20 20 20 20
17 17 17 16 16 17 17 18 18 18 18 19 20 20 20 21 21 21 21 22 22 22 23 23 22 21 22 23 24 24 24 23 23 22 22 20 20 20 20 19 19 19 19
16 16 16 16 16 16 17 17 17 17 17 18 19 19 19 19 20 21 21 21 21 22 22 22 21 21 21 21 22 23 23 23 23 23 23 21 20 20 19 19 19 19 19
15 15 16 16 16 16 16 16 16 16 16 17 17 18 19 19 19 19 19 20 20 20 20 21 20 20 21 21 21 21 22 22 22 22 22 22 20 19 19 19 19 19 19
15 15 15 15 15 15 15 15 15 15 15 15 16 17 17 17 17 17 17 18 19 19 19 19 20 20 20 21 21 21 21 21 21 21 21 21 20 20 19 19 19 19 19
14 14 14 14 15 15 15 14 14 14 14 14 14 14 14 14 14 14 16 17 18 18 18 17 18 18 19 20 20 20 21 21 21 21 21 21 21 20 20 19 18 18 18
13 13 13 14 14 14 14 14 13 13 13 13 13 12 12 12 13 13 14 15 16 17 17 16 16 16 17 18 18 18 19 20 20 20 21 21 20 20 19 18 17 17 16
12 12 13 13 14 14 14 14 13 13 13 13 12 11 11 11 11 12 12 13 14 15 15 15 15 14 15 16 16 16 17 18 18 19 20 20 19 19 18 17 17 16 16
13 13 13 13 13 13 13 13 13 13 12 12 11 11 11 11 10 11 11 11 12 14 14 14 14 15 14 14 14 14 15 16 16 18 18 18 18 18 17 16 15 14 14
13 13 13 14 13 13 13 13 12 12 11 11 11 11 10 10 10 10 10 10 11 12 13 13 13 14 14 13 13 13 14 15 15 16 16 17 17 16 16 15 14 14 14
Wind_Direction
257 258 257 257 257 254 253 253 254 255 256 256 254 253 251 249 249 250 252 255 256 255 253 254 255 256 256 256 257 257 260 261 262 262 261 261 262 266 269 272 276 278 279
257 257 257 256 256 254 254 255 256 256 257 256 256 255 252 251 250 251 252 255 256 253 253 253 254 256 257 257 256 256 258 260 261 261 261 261 264 267 269 272 275 276 278
256 256 257 257 256 256 257 256 257 256 256 256 256 254 253 251 251 252 253 253 253 252 254 255 255 256 257 258 257 256 257 259 261 262 261 261 265 268 270 272 273 275 277
256 256 258 257 256 259 258 257 257 257 256 257 256 255 253 252 252 253 252 251 251 253 255 255 255 255 257 258 257 257 258 259 260 259 260 262 265 267 269 270 271 273 275
257 256 257 257 258 259 258 256 256 257 257 257 256 255 253 252 252 253 251 250 250 253 255 255 255 255 255 257 258 257 256 256 256 257 259 261 263 266 268 270 272 273 275
258 257 257 258 260 261 261 260 260 259 258 256 257 255 253 251 251 252 250 249 251 253 255 255 255 255 254 256 256 254 253 254 255 256 258 261 263 265 268 271 273 273 274
262 259 258 258 260 261 261 261 261 261 259 258 258 256 254 252 250 250 249 250 251 252 253 253 254 254 254 255 254 252 253 255 256 257 257 259 262 264 267 269 271 272 275
266 262 258 257 258 259 260 261 261 262 261 261 259 257 257 256 254 250 249 249 250 251 252 252 253 254 254 253 251 251 252 256 258 259 258 258 260 262 265 268 269 272 274
267 264 259 258 258 258 259 260 260 260 259 260 259 258 257 256 255 253 250 251 252 252 252 250 250 252 251 251 251 251 253 257 258 259 258 258 260 261 263 266 269 270 272
266 264 262 261 261 260 259 259 260 258 257 257 258 258 256 255 255 253 252 253 253 252 252 249 248 251 252 252 252 252 254 257 259 258 258 259 259 259 261 265 266 268 271
269 269 267 265 264 263 261 261 259 257 255 256 257 257 257 256 255 252 252 252 252 252 251 248 250 251 252 253 252 252 254 257 257 257 257 257 258 259 261 263 263 268 271
270 269 269 267 265 264 263 262 263 261 257 257 257 257 256 254 254 251 250 252 252 251 250 250 251 250 250 251 252 253 255 256 256 256 255 256 257 259 260 261 263 268 270
273 271 270 269 267 264 264 264 264 263 261 260 258 257 255 254 254 252 251 250 251 251 248 248 249 251 252 253 253 253 255 256 255 253 253 255 255 257 259 260 261 265 269
273 272 271 269 269 266 265 267 266 263 262 260 259 256 256 256 255 254 253 250 247 247 246 246 250 250 250 252 253 252 253 253 249 248 251 255 256 255 257 258 261 266 269
277 276 274 272 269 267 266 268 267 264 261 259 260 259 258 257 256 255 254 252 250 248 248 250 251 250 249 250 251 250 250 247 245 244 247 250 252 254 255 255 260 264 267
280 279 277 274 271 270 270 270 266 264 264 263 262 259 257 256 255 254 254 254 254 251 249 248 248 249 249 250 250 247 245 243 242 242 243 245 248 251 252 254 257 262 265
282 279 276 275 273 273 274 272 268 267 266 263 261 260 259 257 256 255 253 254 254 250 248 245 246 248 248 247 245 244 242 240 239 240 242 245 247 250 251 252 255 260 263
283 282 279 277 276 277 276 273 270 267 266 264 262 262 262 259 255 252 251 252 251 249 246 243 242 245 248 246 243 242 241 239 238 240 242 243 246 249 251 251 252 257 260
284 280 278 278 278 278 277 275 273 270 267 264 264 264 262 260 256 252 251 250 247 244 242 241 242 245 246 243 241 240 240 240 240 242 241 242 244 247 249 249 251 253 258
284 280 278 277 277 278 277 278 277 273 270 269 267 266 263 261 257 253 249 246 243 242 242 241 242 243 243 241 239 240 241 239 240 239 239 242 243 244 246 248 252 256 258
285 282 281 279 278 279 280 279 278 275 273 272 271 269 265 261 255 249 245 243 242 242 241 239 239 240 241 239 238 240 240 237 236 236 238 241 243 244 247 251 254 255 256
288 287 284 284 283 281 281 281 278 274 272 272 271 269 263 255 248 246 246 244 241 237 234 235 237 239 239 237 239 239 237 233 231 233 235 239 242 244 246 250 253 254 255
290 288 288 289 288 285 283 281 276 272 271 272 269 261 254 249 247 247 246 241 236 232 230 232 237 240 239 238 238 238 236 232 230 232 234 236 240 242 244 246 248 249 251
291 291 292 291 289 286 284 279 274 272 270 267 260 253 249 246 244 244 242 236 231 228 229 232 233 236 237 238 239 240 238 234 232 232 232 235 238 241 243 244 245 244 245
291 292 292 292 289 287 285 280 276 272 266 258 253 247 244 243 241 238 236 233 229 229 230 231 233 234 233 236 238 239 237 236 235 233 233 235 238 239 239 240 240 239 241
288 290 291 291 289 287 285 280 277 270 261 254 249 244 241 239 235 232 232 232 229 229 229 231 233 230 230 232 237 237 234 233 232 229 229 232 234 234 234 235 237 238 240
Height
5594 5596 5597 5598 5599 5601 5603 5604 5606 5607 5609 5610 5612 5614 5616 5619 5621 5623 5624 5626 5628 5630 5632 5635 5637 5639 5641 5643 5645 5647 5649 5650 5652 5654 5654 5655 5656 5656 5657 5657 5656 5655 5654
5585 5586 5587 5589 5590 5591 5593 5594 5596 5597 5598 5600 5601 5603 5605 5607 5609 5612 5614 5615 5617 5619 5621 5624 5626 5628 5630 5632 5635 5637 5638 5640 5642 5644 5645 5646 5646 5647 5648 5647 5647 5645 5644
5575 5576 5577 5579 5580 5582 5583 5584 5586 5587 5589 5590 5591 5592 5594 5596 5598 5600 5603 5604 5607 5608 5610 5612 5614 5617 5620 5622 5624 5626 5628 5630 5631 5633 5635 5636 5638 5638 5638 5637 5637 5636 5635
5566 5568 5569 5570 5571 5572 5574 5575 5576 5577 5579 5580 5581 5582 5583 5585 5587 5589 5591 5593 5596 5598 5600 5602 5603 5606 5609 5611 5613 5615 5617 5619 5621 5623 5626 5627 5628 5628 5628 5628 5628 5627 5626
5557 5559 5560 5561 5562 5563 5564 5566 5567 5568 5569 5570 5571 5572 5573 5575 5577 5579 5581 5583 5585 5587 5589 5591 5593 5595 5597 5600 5603 5605 5607 5609 5611 5614 5616 5618 5619 5619 5619 5619 5618 5618 5616
5549 5550 5551 5553 5554 5555 5556 5557 5557 5558 5559 5560 5561 5562 5564 5565 5567 5568 5570 5572 5575 5577 5579 5581 5583 5585 5587 5590 5593 5595 5597 5599 5602 5604 5606 5608 5609 5610 5609 5609 5609 5609 5608
5541 5542 5543 5544 5545 5546 5547 5547 5548 5549 5549 5550 5551 5553 5554 5555 5557 5559 5560 5562 5565 5567 5569 5571 5573 5575 5578 5580 5582 5585 5587 5589 5592 5595 5596 5598 5599 5600 5600 5600 5600 5599 5599
5534 5535 5536 5536 5537 5538 5539 5539 5539 5540 5541 5542 5543 5544 5545 5546 5548 5550 5551 5553 5556 5558 5560 5562 5564 5566 5568 5571 5573 5575 5578 5580 5583 5585 5587 5588 5588 5589 5589 5590 5590 5590 5589
5527 5528 5528 5529 5530 5530 5531 5531 5532 5532 5533 5534 5535 5536 5537 5538 5540 5541 5543 5545 5547 5549 5551 5553 5556 5558 5561 5563 5565 5567 5569 5571 5572 5574 5575 5577 5578 5579 5580 5581 5581 5581 5581
5521 5521 5521 5522 5522 5523 5523 5524 5524 5525 5526 5526 5527 5528 5529 5531 5532 5533 5535 5537 5539 5540 5543 5545 5548 5550 5552 5554 5556 5558 5560 5562 5563 5564 5565 5567 5568 5569 5571 5572 5573 5572 5572
5515 5515 5515 5515 5515 5516 5516 5517 5517 5518 5519 5520 5520 5521 5522 5523 5524 5525 5527 5528 5531 5532 5535 5537 5539 5542 5543 5545 5547 5549 5551 5552 5553 5554 5556 5558 5559 5560 5562 5563 5563 5564 5564
5510 5510 5510 5509 5509 5509 5510 5510 5511 5511 5512 5512 5513 5514 5514 5515 5516 5517 5519 5521 5523 5525 5527 5529 5531 5533 5535 5537 5538 5540 5542 5543 5544 5545 5547 5549 5550 5551 5553 5554 5555 5555 5555
5505 5505 5504 5504 5504 5504 5503 5504 5504 5504 5505 5505 5506 5507 5507 5508 5509 5510 5511 5513 5515 5517 5519 5521 5523 5525 5527 5529 5530 5532 5533 5534 5536 5537 5539 5541 5542 5543 5545 5546 5547 5548 5548
5500 5499 5499 5498 5498 5497 5497 5497 5497 5498 5498 5499 5499 5500 5501 5501 5502 5503 5504 5506 5508 5510 5512 5514 5515 5517 5519 5521 5523 5524 5525 5527 5528 5530 5532 5533 5534 5536 5537 5539 5540 5541 5541
5495 5494 5493 5493 5492 5492 5491 5491 5491 5491 5491 5492 5493 5494 5494 5495 5495 5496 5497 5499 5500 5502 5504 5506 5507 5509 5511 5513 5515 5517 5518 5520 5521 5523 5524 5526 5528 5529 5531 5532 5534 5534 5535
5490 5489 5488 5487 5487 5486 5485 5485 5485 5485 5485 5485 5486 5487 5488 5488 5489 5490 5491 5492 5493 5495 5496 5498 5500 5501 5503 5506 5508 5510 5511 5513 5514 5516 5518 5520 5522 5523 5525 5526 5527 5528 5529
5485 5484 5483 5482 5481 5480 5480 5479 5479 5479 5479 5479 5480 5480 5481 5481 5482 5483 5484 5485 5486 5487 5489 5491 5493 5495 5497 5499 5501 5503 5505 5506 5508 5510 5512 5514 5516 5517 5518 5520 5521 5522 5523
5480 5479 5478 5477 5476 5475 5475 5474 5474 5473 5473 5473 5473 5473 5474 5474 5475 5476 5477 5478 5479 5481 5482 5484 5486 5488 5490 5492 5494 5496 5498 5500 5502 5504 5506 5508 5510 5511 5513 5514 5515 5516 5517
5475 5474 5473 5472 5471 5470 5470 5469 5468 5468 5468 5467 5467 5467 5467 5467 5468 5469 5470 5471 5472 5474 5476 5478 5480 5482 5484 5486 5488 5490 5492 5494 5496 5498 5500 5502 5504 5506 5507 5508 5509 5510 5511
5470 5469 5468 5467 5466 5465 5464 5464 5463 5462 5462 5461 5461 5461 5461 5461 5462 5462 5463 5465 5467 5469 5470 5472 5474 5476 5479 5481 5483 5484 5486 5489 5490 5492 5494 5496 5498 5500 5501 5503 5504 5505 5505
5465 5464 5463 5462 5461 5460 5459 5458 5458 5457 5457 5456 5456 5455 5455 5455 5456 5457 5458 5459 5461 5463 5465 5467 5469 5471 5473 5475 5477 5479 5481 5483 5485 5487 5489 5491 5493 5495 5496 5498 5499 5499 5500
5461 5459 5458 5457 5456 5455 5454 5454 5453 5452 5452 5452 5451 5451 5450 5451 5451 5452 5453 5455 5456 5458 5460 5462 5464 5466 5468 5470 5472 5474 5475 5477 5480 5482 5484 5486 5488 5490 5491 5492 5494 5494 5495
5456 5455 5454 5452 5451 5450 5449 5449 5448 5448 5448 5447 5447 5447 5447 5447 5448 5448 5449 5450 5452 5454 5456 5458 5460 5462 5463 5465 5467 5469 5471 5473 5475 5477 5479 5481 5483 5485 5486 5488 5489 5489 5490
5452 5450 5449 5448 5447 5446 5445 5444 5444 5443 5443 5443 5443 5443 5443 5444 5444 5445 5446 5447 5448 5450 5452 5454 5456 5458 5459 5461 5463 5464 5466 5468 5470 5472 5474 5476 5478 5480 5482 5483 5484 5485 5486
5447 5446 5445 5443 5442 5441 5440 5439 5439 5439 5438 5438 5439 5439 5440 5441 5441 5442 5443 5444 5446 5447 5449 5451 5452 5454 5456 5458 5459 5460 5462 5463 5465 5467 5470 5472 5474 5476 5477 5479 5480 5481 5482
5443 5441 5440 5439 5438 5437 5436 5435 5435 5434 5434 5435 5436 5436 5437 5438 5439 5440 5441 5442 5443 5445 5446 5448 5449 5451 5452 5454 5455 5456 5458 5459 5461 5463 5465 5468 5470 5471 5473 5475 5476 5477 5479